[[{"header":{"parameterUnit":"m.s-1","parameterCategory":1,"la1":30.2991,"la2":30.254,"lo1":-89.0895,"lo2":-89.0444,"dy":0.0017,"dx":0.0017,"nx":28,"ny":28,"refTime":"2024-04-11T09:00:00:Z","depth":0,"parameterNumber":2,"parameterNumberName":"U-component_of_WINDS"},"data":[0,0,0,0,0,0,0,0,0,0,0,0,0,0,0,0,0,0,0,0,0,0,0,0,0,0,0,0,0,0,0,0,0,0,0,0,0,0,0,0,0,0,0,0,0,0,0,0,0,0,0,0,0,0,0,0,0,0,2.3966,2.3967,0,2.404,2.4041,2.4042,2.4018,2.4017,2.4015,2.4014,2.4091,2.4094,2.4098,0,0,0,0,0,0,0,0,0,0,0,0,0,2.3807,2.381,2.3966,2.3967,2.3968,2.404,2.4041,2.4042,2.4019,2.4017,2.4015,2.4013,2.4089,2.4094,2.4098,0,0,0,0,0,0,0,0,0,0,0,0,0,2.3878,2.3811,2.3966,2.3965,2.3966,2.404,2.4041,2.4043,2.4019,2.4017,2.4014,2.4012,2.4088,2.4093,2.4098,2.4179,0,0,2.4115,2.4117,0,0,0,0,0,0,0,0,2.3874,2.3884,2.3964,2.3965,2.3966,2.4018,2.4013,2.4088,2.402,2.3999,2.4014,2.4011,2.4068,2.4075,2.4094,2.4182,2.4186,2.4115,2.4118,2.4121,2.4122,0,0,0,0,0,0,0,2.3869,2.3881,2.3996,2.3965,2.3967,2.3962,2.3969,2.4027,2.4046,2.4,2.3999,2.4008,2.4068,2.4089,2.4096,2.4187,2.4115,2.412,2.4123,2.4125,2.4348,2.435,0,0,0,0,0,0,2.3863,2.3877,2.3993,2.3998,2.3913,2.3966,2.3975,2.4003,2.4045,2.4049,2.401,2.4006,2.4081,2.409,2.4099,2.4197,2.4121,2.4126,2.4129,2.4345,2.4348,2.4351,0,0,0,0,0,0,2.386,2.3874,2.399,2.3937,2.3951,2.3972,2.4004,2.4006,2.4027,2.4052,2.4056,2.4028,2.408,2.4091,2.416,2.4199,2.4128,2.4133,2.4342,2.4346,2.435,2.4394,0,0,0,0,0,0,2.3856,2.3873,2.3903,2.3938,2.3954,2.4049,2.4007,2.4009,2.4036,2.4032,2.407,2.4074,2.4079,2.4152,2.4165,2.4205,2.4137,2.4338,2.4344,2.4348,2.4389,2.4399,2.4408,0,0,0,0,0,2.385,2.3912,2.3905,2.3919,2.3992,2.4052,2.4061,2.4065,2.4039,2.407,2.4087,2.4073,2.4193,2.4159,2.4173,2.4216,2.4336,2.4342,2.4348,2.4385,2.4397,2.4408,0,0,0,0,0,0,2.3881,2.3917,2.3909,2.3984,2.4015,2.4048,2.4087,2.4078,2.4117,2.4112,2.4116,2.4124,2.4195,2.4212,2.4174,2.4298,2.4261,2.427,2.4284,2.4296,2.4305,2.43,2.4141,0,0,0,0,0,2.3897,2.3942,2.397,2.4034,2.405,2.4066,2.4092,2.4093,2.4125,2.4138,2.416,2.4193,2.4238,2.4268,2.431,2.4392,2.44,2.4428,2.4438,2.4445,2.4453,2.45,2.4513,2.4371,2.4371,2.4371,0,0,2.393,2.3955,2.3983,2.4041,2.4065,2.4113,2.4077,2.4128,2.4164,2.4146,2.4213,2.423,2.4267,2.4342,2.4377,2.4359,2.4495,2.4453,2.4459,2.4463,2.4508,2.4521,2.4533,2.4376,2.4375,2.4374,0,0,2.4014,2.4037,2.4093,2.4119,2.4156,2.4166,2.418,2.4215,2.4226,2.4292,2.4281,2.4323,2.4401,2.4428,2.4452,2.455,2.4539,2.4564,2.4612,2.4658,2.4669,2.4679,2.4715,2.4728,2.4572,2.4572,2.4572,0,2.4051,2.4121,2.4124,2.4177,2.4204,2.419,2.4248,2.4273,2.4322,2.4342,2.4321,2.4419,2.4443,2.4526,2.455,2.457,2.4587,2.4559,2.4667,2.4677,2.4686,2.4721,2.4735,2.4575,2.4574,2.4574,2.4574,0,2.4165,2.4214,2.4255,2.4304,2.4335,2.4391,2.4403,2.4435,2.4433,2.4446,2.4516,2.4544,2.4593,2.4613,2.4611,2.4697,2.4685,2.4665,2.4628,2.4703,2.4736,2.4749,2.4579,2.4578,2.4577,2.4576,0,0,2.427,2.4321,2.4336,2.4359,2.44,2.4439,2.4494,2.4543,2.4571,2.4606,2.4654,2.4721,2.4704,2.4731,2.4733,2.4773,2.485,2.4749,2.475,2.4768,2.4948,2.4963,2.4979,2.4843,2.4846,2.4848,2.4946,0,2.4359,2.4456,2.4461,2.455,2.4597,2.4586,2.4634,2.4666,2.468,2.4722,2.4738,2.4786,2.4759,2.4776,2.4814,2.4833,2.4887,2.4826,2.4889,2.4891,2.4881,2.4995,2.5011,2.5102,2.4958,2.4961,2.4962,0,2.4475,2.4515,2.4609,2.4645,2.4665,2.4708,2.4754,2.4795,2.4831,2.4838,2.487,2.4867,2.4925,2.4886,2.4968,2.4926,2.4952,2.4966,2.4969,2.4976,2.4932,2.5007,2.5131,2.5145,2.4982,2.4981,2.4979,0,2.4545,2.4622,2.4688,2.4708,2.4751,2.4783,2.4803,2.4836,2.4866,2.4906,2.4926,2.4972,2.4998,2.5035,2.5045,2.5016,2.5128,2.5089,2.5137,2.5137,2.5162,2.516,2.5293,2.5177,2.5177,2.5176,2.5176,0,2.4645,2.4703,2.472,2.4761,2.4827,2.4833,2.4898,2.4915,2.4946,2.4991,2.4984,2.5027,2.5037,2.5082,2.509,2.5158,2.5169,2.5178,2.518,2.518,2.5179,2.5198,2.5192,2.518,2.5179,2.5178,2.5178,0,2.4733,2.4747,2.4819,2.4855,2.4866,2.4913,2.4944,2.4984,2.4998,2.5055,2.5069,2.5091,2.5144,2.5158,2.5221,2.5227,2.5307,2.5302,2.5295,2.5295,2.5343,2.5339,2.5494,2.5516,2.5384,2.5385,2.5386,0,2.4796,2.4841,2.4882,2.4912,2.4933,2.4981,2.5012,2.502,2.5052,2.5098,2.5133,2.5185,2.5227,2.5313,2.5335,2.5384,2.5381,2.5432,2.5389,2.5388,2.5384,2.5382,2.5387,2.5441,2.5442,2.5443,2.5444,0,2.4907,2.4913,2.4956,2.5004,2.504,2.5078,2.5113,2.5139,2.5152,2.5189,2.5243,2.5276,2.5341,2.5394,2.5444,2.5465,2.5458,2.5458,2.5472,2.5472,2.5467,2.5472,2.5319,2.5454,2.5453,2.5453,2.5452,2.5452,2.4986,2.5026,2.5062,2.5112,2.514,2.5174,2.5214,2.5233,2.5279,2.5333,2.5335,2.5394,2.5431,2.5498,2.5522,2.557,2.5554,2.5574,2.558,2.5585,2.559,2.5459,2.5579,2.5578,2.5578,2.5578,2.5578,0,2.5098,2.5121,2.5167,2.5218,2.5258,2.5247,2.5286,2.5321,2.5373,2.5408,2.545,2.5514,2.5565,2.5592,2.5644,2.5677,2.5675,2.569,2.5689,2.5694,2.56,2.5583,2.5691,2.5691,2.5691,2.5691,2.5691,2.5691,2.5161,2.5229,2.5239,2.5321,2.5343,2.5402,2.5426,2.5458,2.5486,2.5557,2.56,2.5617,2.565,2.5704,2.5751,2.5758,2.5778,2.5796,2.5801,2.5712,2.57,2.5689,2.5674,2.58,2.58,2.5891,2.5892,2.5893]},{"header":{"parameterUnit":"m.s-1","parameterCategory":1,"la1":30.2991,"la2":30.254,"lo1":-89.0895,"lo2":-89.0444,"dy":0.0017,"dx":0.0017,"nx":28,"ny":28,"refTime":"2024-04-11T09:00:00:Z","depth":0,"parameterNumber":3,"parameterNumberName":"V-component_of_WINDS"},"data":[0,0,0,0,0,0,0,0,0,0,0,0,0,0,0,0,0,0,0,0,0,0,0,0,0,0,0,0,0,0,0,0,0,0,0,0,0,0,0,0,0,0,0,0,0,0,0,0,0,0,0,0,0,0,0,0,0,0,-3.7252,-3.7253,0,-3.7335,-3.7336,-3.7337,-3.7364,-3.7363,-3.7363,-3.7362,-3.7446,-3.7449,-3.7451,0,0,0,0,0,0,0,0,0,0,0,0,0,-3.7114,-3.7117,-3.7252,-3.7253,-3.7254,-3.7335,-3.7336,-3.7338,-3.7364,-3.7363,-3.7363,-3.7362,-3.7445,-3.7449,-3.7452,0,0,0,0,0,0,0,0,0,0,0,0,0,-3.7183,-3.7117,-3.7251,-3.7277,-3.728,-3.7335,-3.7336,-3.7338,-3.7364,-3.7363,-3.7363,-3.7362,-3.7444,-3.7448,-3.7452,-3.7488,0,0,-3.7464,-3.7466,0,0,0,0,0,0,0,0,-3.7179,-3.7188,-3.7272,-3.7275,-3.7279,-3.7338,-3.7319,-3.7388,-3.7364,-3.7332,-3.7362,-3.7362,-3.7411,-3.7417,-3.7434,-3.7492,-3.7495,-3.7464,-3.7467,-3.7468,-3.7469,0,0,0,0,0,0,0,-3.7175,-3.7185,-3.7285,-3.7273,-3.7277,-3.7284,-3.7293,-3.7332,-3.7373,-3.7334,-3.7337,-3.7346,-3.7412,-3.7431,-3.7436,-3.7497,-3.7464,-3.7468,-3.747,-3.7472,-3.759,-3.7591,0,0,0,0,0,0,-3.7166,-3.7181,-3.7282,-3.7287,-3.7227,-3.7287,-3.7297,-3.732,-3.7373,-3.7381,-3.7347,-3.7347,-3.7424,-3.7432,-3.744,-3.7487,-3.7468,-3.7472,-3.7474,-3.759,-3.7591,-3.7591,0,0,0,0,0,0,-3.7163,-3.7174,-3.7279,-3.7235,-3.7248,-3.729,-3.7315,-3.7322,-3.734,-3.7382,-3.739,-3.7358,-3.7424,-3.7434,-3.7476,-3.749,-3.7474,-3.7477,-3.7589,-3.759,-3.7591,-3.758,0,0,0,0,0,0,-3.7159,-3.7173,-3.7187,-3.7235,-3.7251,-3.7314,-3.7316,-3.7324,-3.7347,-3.7348,-3.7395,-3.7402,-3.7424,-3.747,-3.748,-3.7495,-3.748,-3.7588,-3.7589,-3.7591,-3.758,-3.7581,-3.7582,0,0,0,0,0,-3.7154,-3.718,-3.7188,-3.72,-3.7269,-3.7315,-3.7324,-3.735,-3.7348,-3.7362,-3.739,-3.74,-3.7487,-3.7475,-3.7486,-3.7502,-3.7587,-3.7589,-3.759,-3.7579,-3.7581,-3.7582,0,0,0,0,0,0,-3.7131,-3.7186,-3.7196,-3.7238,-3.7272,-3.7319,-3.7338,-3.735,-3.7385,-3.7385,-3.7415,-3.7425,-3.7466,-3.7488,-3.7473,-3.7541,-3.7537,-3.7542,-3.7525,-3.7527,-3.7528,-3.7522,-3.7484,0,0,0,0,0,-3.7131,-3.7164,-3.721,-3.7243,-3.726,-3.7296,-3.7317,-3.7335,-3.737,-3.7384,-3.7415,-3.7449,-3.7484,-3.7507,-3.7541,-3.7583,-3.7594,-3.76,-3.7601,-3.7602,-3.7605,-3.7631,-3.7635,-3.7597,-3.7597,-3.7597,0,0,-3.7132,-3.7166,-3.7184,-3.724,-3.7268,-3.7302,-3.7308,-3.7342,-3.7368,-3.7389,-3.7432,-3.7456,-3.7496,-3.7539,-3.7559,-3.7559,-3.7619,-3.7604,-3.7605,-3.7608,-3.7634,-3.7637,-3.764,-3.7599,-3.7599,-3.7598,0,0,-3.715,-3.7178,-3.721,-3.7239,-3.7282,-3.7306,-3.7314,-3.736,-3.7377,-3.7421,-3.7438,-3.7469,-3.7528,-3.7557,-3.7579,-3.7611,-3.7622,-3.7621,-3.7628,-3.7653,-3.7656,-3.7659,-3.7672,-3.7676,-3.7624,-3.7624,-3.7624,0,-3.7144,-3.7196,-3.7225,-3.726,-3.7284,-3.7306,-3.7339,-3.7365,-3.7417,-3.7434,-3.7433,-3.751,-3.7538,-3.7589,-3.7597,-3.7614,-3.7624,-3.7616,-3.7653,-3.7656,-3.7659,-3.7672,-3.7677,-3.7624,-3.7624,-3.7624,-3.7624,0,-3.7189,-3.7224,-3.7245,-3.7296,-3.7323,-3.7356,-3.739,-3.7414,-3.743,-3.7454,-3.7499,-3.7534,-3.7578,-3.7591,-3.7606,-3.7645,-3.7643,-3.7647,-3.7644,-3.7662,-3.7675,-3.768,-3.7623,-3.7624,-3.7624,-3.7624,0,0,-3.7193,-3.7262,-3.7269,-3.7294,-3.7344,-3.7372,-3.7407,-3.7451,-3.7471,-3.7507,-3.7538,-3.7589,-3.7594,-3.7619,-3.7637,-3.7659,-3.7685,-3.7661,-3.7662,-3.7665,-3.7732,-3.7729,-3.7734,-3.7692,-3.7693,-3.7694,-3.7729,0,-3.7219,-3.7284,-3.7311,-3.7363,-3.7398,-3.7421,-3.7452,-3.7486,-3.751,-3.7543,-3.757,-3.7606,-3.7609,-3.7625,-3.7648,-3.7677,-3.7698,-3.7674,-3.7722,-3.7724,-3.7712,-3.7741,-3.7737,-3.7769,-3.7734,-3.7735,-3.7735,0,-3.7257,-3.7294,-3.735,-3.7399,-3.7414,-3.7442,-3.7485,-3.7516,-3.7556,-3.7572,-3.7602,-3.762,-3.7659,-3.7653,-3.7708,-3.7691,-3.7712,-3.773,-3.7732,-3.7738,-3.7731,-3.7748,-3.7779,-3.7784,-3.7743,-3.7742,-3.7742,0,-3.7257,-3.7321,-3.7364,-3.7384,-3.7441,-3.746,-3.7484,-3.7524,-3.7549,-3.7587,-3.7604,-3.7645,-3.7668,-3.77,-3.7729,-3.7722,-3.7781,-3.7778,-3.7797,-3.7796,-3.7808,-3.7807,-3.7844,-3.782,-3.782,-3.782,-3.782,0,-3.7283,-3.7316,-3.7365,-3.7391,-3.743,-3.7462,-3.7499,-3.7525,-3.7561,-3.7593,-3.7615,-3.7644,-3.7681,-3.7715,-3.7738,-3.7781,-3.779,-3.7805,-3.7811,-3.7804,-3.7802,-3.7819,-3.7818,-3.7821,-3.7821,-3.7821,-3.7821,0,-3.7289,-3.7323,-3.7371,-3.7422,-3.7436,-3.7462,-3.7506,-3.7533,-3.7559,-3.7599,-3.7611,-3.7652,-3.7694,-3.7726,-3.778,-3.7796,-3.7841,-3.7847,-3.7828,-3.7831,-3.7849,-3.7847,-3.7898,-3.7907,-3.7876,-3.7876,-3.7877,0,-3.7304,-3.733,-3.7385,-3.7409,-3.7434,-3.7471,-3.7498,-3.7531,-3.7557,-3.7607,-3.7628,-3.7671,-3.7708,-3.7774,-3.7809,-3.7851,-3.7859,-3.7873,-3.7865,-3.7858,-3.7861,-3.7859,-3.7863,-3.7874,-3.7875,-3.7875,-3.7875,0,-3.7327,-3.7343,-3.738,-3.7425,-3.7456,-3.7492,-3.7528,-3.7546,-3.7586,-3.7615,-3.7659,-3.7688,-3.7744,-3.7788,-3.7834,-3.786,-3.7874,-3.7878,-3.7884,-3.7878,-3.7866,-3.7874,-3.7832,-3.7876,-3.7876,-3.7876,-3.7876,-3.7876,-3.7339,-3.7364,-3.7408,-3.745,-3.7481,-3.7515,-3.7543,-3.7574,-3.7612,-3.7661,-3.7678,-3.7724,-3.7766,-3.7829,-3.7856,-3.7892,-3.7893,-3.7902,-3.7905,-3.7907,-3.7907,-3.786,-3.79,-3.79,-3.79,-3.79,-3.79,0,-3.7364,-3.7394,-3.7432,-3.7483,-3.7517,-3.7529,-3.757,-3.7597,-3.7638,-3.7676,-3.7712,-3.7764,-3.7807,-3.7846,-3.7891,-3.7913,-3.7921,-3.7924,-3.7923,-3.7929,-3.7903,-3.7893,-3.7917,-3.7917,-3.7917,-3.7917,-3.7917,-3.7917,-3.7381,-3.7426,-3.7448,-3.7509,-3.7538,-3.7584,-3.7607,-3.7639,-3.767,-3.7727,-3.7764,-3.7789,-3.7828,-3.7877,-3.7917,-3.7928,-3.7944,-3.7945,-3.7957,-3.7932,-3.793,-3.7928,-3.792,-3.7948,-3.7948,-3.7981,-3.7981,-3.7981]}]]